Presure
195 204 205 190 201 203 194 203 199 194 199 194 203 143 199 196 209 211 220 218 219 200 247 209 262 257 234 224 217 215 211 213 211 210 209 209 207 206 206 209 208 210 210 109
202 202 198 197 200 190 207 200 193 194 194 193 199 198 202 208 208 210 214 212 219 202 234 249 242 267 228 255 235 229 227 225 221 219 215 215 212 212 213 216 217 215 222 248
208 219 216 212 217 205 203 192 196 194 191 204 196 198 205 204 211 209 209 209 210 234 209 250 235 262 252 247 241 235 245 250 244 242 242 248 258 255 253 238 258 192 260 242
217 222 211 216 198 191 194 195 204 208 202 200 199 199 207 210 208 210 217 217 233 235 234 251 230 254 253 243 238 237 237 237 234 234 239 224 229 227 235 232 229 237 234 231
197 219 205 192 190 189 201 199 197 198 201 208 211 208 207 218 221 220 223 241 244 241 236 245 231 234 245 243 254 246 213 178 236 236 233 232 244 256 253 218 242 250 248 263
215 203 207 207 208 203 201 203 206 210 215 211 215 229 227 234 252 257 252 246 246 244 232 244 237 239 250 241 236 248 260 254 243 226 237 236 241 243 248 248 253 236 240 230
208 203 205 204 206 212 212 214 210 216 225 233 242 273 269 271 271 270 265 262 258 244 244 247 244 245 249 255 244 216 247 250 250 248 255 259 239 248 226 236 225 214 205 211
211 214 217 216 214 224 228 233 233 302 321 331 320 312 293 302 307 299 306 286 282 259 257 257 251 246 260 256 253 247 247 244 265 257 224 246 256 201 202 213 222 230 236 233
220 227 228 228 238 241 269 327 309 285 294 274 307 281 269 279 279 276 266 262 264 262 265 260 268 271 253 246 256 263 268 232 250 259 202 206 208 213 233 227 236 240 249 262
239 241 247 286 314 296 295 286 279 277 277 286 271 265 269 268 264 263 260 263 262 264 262 258 256 256 257 260 264 269 256 203 197 205 213 229 227 229 232 248 253 259 268 277
302 302 306 301 300 283 281 272 264 282 277 278 291 274 269 260 260 263 264 239 249 249 249 241 235 237 241 227 200 198 203 213 222 224 229 232 240 252 255 263 269 283 449 437
292 280 281 283 280 290 280 286 281 274 267 262 255 261 258 250 240 238 241 243 245 236 249 251 231 216 195 197 202 208 224 232 232 238 246 255 258 264 274 387 444 439 438 378
280 280 278 273 268 260 260 259 256 252 250 249 249 245 247 252 247 248 247 249 250 222 216 204 198 199 204 223 220 230 235 243 250 250 252 265 302 448 447 439 375 377 438 436
259 260 254 260 261 259 257 257 255 254 256 257 255 257 264 266 265 213 205 201 199 199 200 200 222 220 228 235 241 247 251 253 260 267 402 470 453 394 386 385 387 385 387 445
291 293 271 265 281 259 231 289 269 249 237 246 209 204 204 203 204 204 204 217 220 228 230 235 233 237 241 248 250 254 260 353 488 487 492 472 402 393 389 383 388 387 387 383
244 242 251 257 259 248 203 194 206 205 204 205 204 202 202 204 231 233 234 227 233 235 236 242 243 249 249 256 262 495 367 343 462 442 426 412 396 371 378 387 387 385 378 374
196 199 203 203 204 202 200 199 201 202 206 213 224 232 231 229 232 234 234 237 243 242 245 248 251 258 281 376 352 329 308 413 426 409 383 373 384 388 390 393 391 385 377 377
208 207 207 210 213 214 213 225 233 237 237 236 236 233 234 241 243 241 244 247 250 251 256 272 331 371 347 326 310 300 304 421 418 414 385 377 365 351 344 346 354 360 368 381
238 242 243 244 245 242 239 240 241 240 241 240 243 245 240 246 252 251 252 270 275 283 387 366 344 319 305 297 302 290 305 306 303 308 309 309 310 309 311 311 313 316 318 321
250 251 251 249 248 250 251 251 250 247 249 249 252 250 255 259 263 274 441 405 378 347 326 314 302 301 314 328 296 302 292 290 295 297 300 298 344 301 303 306 301 299 300 303
258 261 266 269 267 263 262 262 267 268 267 266 277 345 453 442 404 376 356 327 315 306 305 325 355 345 335 329 317 305 315 342 337 331 330 330 331 328 333 373 383 358 349 315
286 285 284 284 285 289 356 408 499 477 457 453 420 391 369 345 328 314 307 353 396 401 374 361 345 367 351 344 338 329 340 350 348 349 352 362 374 392 420 424 423 414 355 365
441 433 425 431 474 473 461 453 436 398 371 353 335 317 309 315 409 425 429 408 402 376 372 353 342 343 341 339 337 338 336 336 338 338 340 345 346 353 365 385 417 424 414 401
477 445 466 450 465 390 351 353 330 319 210 321 427 430 385 389 404 372 353 334 330 341 336 335 336 333 335 332 329 329 326 328 327 335 339 340 339 340 347 356 375 408 405 402
387 373 329 323 324 319 360 373 340 407 395 375 367 360 352 334 336 333 330 333 329 334 330 327 321 322 324 328 330 329 327 326 328 335 335 331 334 342 350 358 367 389 394 407
352 295 326 178 416 403 385 373 360 342 339 343 329 315 326 325 328 325 327 328 327 328 327 324 321 319 319 317 317 321 325 328 325 328 329 330 331 338 344 354 365 391 395 405
428 305 239 359 366 355 353 342 337 325 326 322 316 317 319 317 321 323 322 320 314 314 315 318 318 318 314 315 319 321 325 324 326 326 330 333 333 339 344 354 369 381 401 402
Wind_Speed
70 74 74 71 75 74 75 75 75 75 77 79 75 75 79 81 84 87 87 84 87 91 82 92 82 98 109 111 114 115 117 117 117 118 119 121 121 123 126 129 130 130 136 56
73 75 75 76 79 79 83 78 78 78 81 81 84 85 87 91 91 93 94 92 92 92 92 89 89 90 95 94 113 116 117 119 121 122 124 126 123 124 128 132 134 132 136 110
77 82 79 80 75 80 84 83 84 82 84 86 88 92 92 96 96 96 97 98 96 100 88 92 94 90 93 97 104 104 104 106 112 120 124 122 112 113 116 116 119 119 121 112
80 80 80 80 79 81 89 88 88 90 89 91 93 96 101 105 104 102 103 103 102 99 97 91 98 94 93 101 106 106 109 108 111 113 117 115 110 110 117 108 111 118 108 117
74 78 78 80 83 84 93 93 92 91 98 105 104 104 101 112 112 110 109 101 98 98 94 95 96 99 100 101 102 113 92 100 117 115 117 116 125 126 122 107 127 128 125 133
83 82 84 84 86 90 93 99 104 109 112 105 110 116 114 116 110 102 101 99 97 96 97 97 99 101 103 107 106 108 114 121 122 92 119 108 106 120 125 122 124 113 114 116
83 81 87 88 90 98 103 105 105 110 116 117 118 112 110 108 104 99 98 95 96 98 98 97 100 100 104 107 109 101 113 119 125 121 123 125 106 111 101 106 109 113 118 122
90 95 98 96 95 104 109 109 112 72 61 50 65 67 75 85 72 68 66 68 80 92 97 97 99 100 103 103 108 111 113 114 127 127 103 105 121 99 106 113 115 118 124 127
97 101 100 101 107 110 109 42 51 65 49 67 60 58 65 62 56 58 62 70 76 83 85 88 93 89 98 102 104 108 108 101 108 115 99 102 104 111 115 120 119 126 129 135
103 104 106 84 43 52 50 53 54 56 58 56 62 62 62 60 65 67 69 71 72 74 77 82 85 89 95 98 99 101 97 93 98 105 110 111 113 117 120 125 128 130 138 144
38 37 38 43 47 52 52 57 56 50 52 53 64 60 58 63 66 66 68 66 69 72 77 77 78 80 82 82 86 90 95 101 104 108 113 115 119 125 127 134 139 146 66 68
42 42 44 41 38 40 46 51 52 50 51 53 53 57 60 59 58 62 64 67 68 69 75 78 74 80 82 88 94 100 100 106 108 113 117 124 127 134 141 97 65 65 64 79
40 41 42 42 41 41 44 45 45 47 50 53 55 57 60 63 63 64 67 67 71 65 70 79 83 88 91 94 100 100 103 110 114 116 124 135 129 62 62 62 78 76 60 59
39 42 40 44 45 45 46 48 48 50 52 55 56 61 65 67 67 59 65 70 73 78 82 87 89 92 93 98 102 108 112 114 123 129 84 52 54 70 70 66 65 63 61 53
38 40 37 36 46 44 42 48 49 47 46 51 54 59 62 65 68 71 75 76 79 81 84 87 90 95 98 106 109 113 122 98 46 44 44 45 56 56 58 56 55 55 53 53
41 39 39 38 38 40 49 51 55 56 58 62 64 66 69 73 70 72 75 77 81 85 88 96 98 103 104 112 119 38 71 77 42 41 43 46 46 51 51 49 48 47 47 48
45 46 48 50 52 53 55 57 61 64 67 68 68 69 70 72 74 77 80 84 90 92 96 99 104 111 114 58 63 69 73 49 38 39 39 44 45 43 45 44 43 41 43 42
57 58 59 60 63 64 66 64 64 65 67 68 70 71 74 78 82 83 87 93 96 99 105 110 78 50 57 62 65 65 63 34 35 36 34 33 36 38 38 37 36 38 39 39
62 63 64 65 65 65 65 67 69 70 71 73 77 80 78 85 93 94 95 101 101 102 37 43 50 57 60 62 61 60 57 54 54 49 45 45 43 43 42 42 42 42 43 42
67 69 70 71 71 73 76 79 81 80 84 85 87 86 90 89 91 90 14 26 34 43 49 53 56 57 55 51 57 57 56 53 52 52 51 48 48 44 45 42 41 41 42 43
72 74 77 79 79 78 79 80 83 84 84 85 88 64 11 11 21 30 35 43 47 50 52 48 40 41 45 46 50 52 50 41 42 43 45 45 44 45 46 48 49 50 48 40
77 78 78 80 82 84 60 39 7 7 9 7 12 20 26 32 38 42 44 34 22 19 27 30 35 27 33 35 36 38 36 36 38 39 40 42 43 44 43 41 40 41 46 47
27 27 29 27 8 3 5 6 6 12 19 24 28 33 36 37 13 15 13 13 14 16 15 21 27 26 27 28 32 33 35 37 39 40 41 43 45 47 47 47 45 41 40 42
3 6 6 4 11 7 13 16 20 24 40 26 18 21 12 21 20 19 18 22 24 18 19 21 21 25 28 30 32 35 38 39 40 43 45 46 46 48 50 49 51 46 42 40
5 7 16 18 19 20 8 6 7 25 25 21 21 23 23 21 20 17 16 13 15 17 19 22 25 27 30 33 36 37 40 42 44 46 47 47 49 52 55 56 55 52 47 42
14 4 10 28 34 34 31 30 25 13 14 29 25 23 20 15 12 13 14 17 19 22 25 28 31 33 35 36 38 41 43 45 46 48 49 50 51 53 56 59 59 58 52 46
39 14 11 33 35 32 34 32 34 30 31 27 23 17 16 19 17 20 21 23 26 29 32 34 34 35 36 40 43 45 48 49 50 51 54 54 55 57 58 61 63 60 54 48
Wind_Direction
270 272 273 271 275 276 274 274 275 276 277 276 279 274 278 273 285 286 288 282 283 274 284 272 274 268 267 267 268 270 272 274 275 276 275 275 277 278 279 280 281 283 284 287
269 271 271 272 273 274 275 275 275 276 276 278 283 282 284 285 285 285 286 284 284 277 286 280 277 275 272 273 268 268 270 272 273 274 275 275 278 280 281 282 282 281 281 287
274 275 271 272 271 273 274 275 275 276 276 283 281 282 284 285 285 283 283 283 283 287 280 279 279 279 273 273 272 271 274 276 275 276 276 279 282 281 284 284 288 281 294 290
273 276 271 271 272 276 276 277 280 283 282 282 282 282 284 285 284 284 283 283 284 283 282 276 279 280 276 271 274 276 277 278 279 281 281 283 283 286 291 290 288 298 292 291
270 274 270 273 276 277 279 281 282 281 281 282 281 281 282 282 281 282 281 281 276 277 277 277 277 279 276 274 273 272 280 277 280 281 285 289 289 291 289 279 297 296 296 297
271 271 272 274 276 276 278 279 280 280 280 281 282 281 281 281 281 276 277 277 275 276 278 277 276 278 274 277 278 278 276 277 281 280 283 288 294 289 294 293 294 287 288 284
274 276 275 276 277 275 276 278 279 279 280 280 281 277 276 276 274 274 275 275 273 272 275 275 277 279 278 278 279 281 283 282 282 286 286 286 286 291 282 287 285 285 287 286
273 273 273 275 277 276 275 277 278 272 280 286 281 266 269 274 278 276 273 277 274 270 275 275 276 278 279 280 282 285 286 287 284 286 284 289 291 286 287 286 285 287 287 286
273 273 275 276 277 278 279 257 254 266 273 273 274 266 271 279 280 277 276 275 274 274 277 279 282 282 281 287 286 286 286 286 290 289 288 289 288 287 287 287 290 290 292 295
273 274 276 273 252 259 258 261 265 268 272 267 262 265 271 272 273 274 279 284 287 285 284 283 284 285 286 287 289 289 288 286 289 288 288 289 289 288 289 292 294 295 298 298
262 265 264 259 252 257 258 267 271 261 264 266 264 269 273 276 281 284 285 284 286 287 287 285 285 285 286 287 288 290 289 288 287 287 289 290 291 295 296 297 298 298 296 296
260 267 269 269 273 269 268 264 267 281 280 280 283 281 282 283 283 283 283 283 284 282 285 285 287 285 290 292 290 289 288 290 290 293 295 297 298 299 298 298 297 297 298 296
277 276 278 280 276 275 278 279 281 281 283 283 284 285 286 286 286 286 285 285 286 285 283 286 290 290 290 287 287 289 291 294 298 298 298 299 298 299 298 299 299 299 298 297
279 278 280 280 280 282 282 283 284 285 283 283 284 284 284 284 285 286 288 289 290 290 290 291 286 286 290 293 296 298 299 299 300 300 298 299 300 298 300 301 301 301 301 299
272 273 276 278 279 276 277 277 276 279 283 283 288 287 288 288 289 289 289 286 285 288 289 292 292 295 297 299 300 301 300 301 306 306 303 304 300 302 301 303 303 304 305 304
275 277 277 279 280 273 285 286 287 288 289 290 290 291 291 290 286 287 289 286 292 294 296 297 298 300 300 301 300 312 303 303 312 312 310 307 307 304 307 309 309 310 308 306
286 287 287 287 286 287 288 290 289 289 287 286 284 286 287 287 289 292 293 295 296 296 297 300 300 299 298 303 303 303 304 312 322 319 319 315 315 316 317 318 319 318 312 314
288 287 287 286 284 283 284 283 283 284 285 286 288 289 291 293 294 295 296 297 298 298 297 296 297 300 301 302 303 306 310 334 331 329 330 327 325 329 330 331 332 328 328 325
283 285 286 287 288 287 287 287 287 288 290 291 293 295 295 295 295 295 294 293 294 295 297 297 299 299 301 303 305 306 312 318 320 323 323 322 322 321 322 322 323 323 325 327
285 286 286 287 288 289 290 290 290 291 290 291 290 291 290 290 290 291 305 295 295 297 297 296 298 300 302 305 305 308 311 314 316 316 319 320 318 320 319 318 318 319 320 322
284 284 283 283 283 284 284 285 286 286 286 287 288 290 320 322 298 296 297 296 296 297 298 300 304 304 304 306 306 308 313 321 321 322 323 322 321 321 320 315 311 312 313 316
281 281 281 282 282 283 285 289 17 334 328 344 307 298 295 296 296 296 297 302 320 327 316 315 312 325 319 317 316 316 326 335 334 335 336 340 341 342 342 332 324 316 313 309
290 289 289 291 318 354 339 5 352 302 296 294 295 295 295 298 4 33 46 22 26 354 345 329 321 322 322 327 330 334 335 336 337 337 338 341 341 341 344 345 339 332 321 314
24 333 42 32 77 309 303 303 300 293 295 295 63 60 33 42 56 31 5 341 338 339 328 323 330 329 342 343 339 339 335 338 338 342 342 343 341 339 339 342 342 340 331 324
344 320 303 303 302 298 330 14 29 82 75 66 52 42 34 13 13 1 355 339 328 340 336 342 341 343 346 350 351 349 346 344 343 345 343 341 341 343 343 343 342 340 336 328
313 343 65 308 89 91 92 92 89 62 56 53 39 20 25 15 9 2 357 3 2 6 6 1 357 353 351 348 347 348 347 346 344 343 343 342 341 341 342 342 341 340 336 331
98 79 328 92 93 88 80 73 67 60 55 52 42 28 22 28 23 26 21 17 9 6 3 2 359 356 352 350 349 348 347 345 344 342 342 342 342 341 341 342 341 338 335 332